Temp
24 24 25 26 26 26 26 26 27 27 27 27 27 27 27 27 27 27 28 28 28 28 28 29 29 30 30 31 31 30 30 30 30 29 30 30 29 29 29 29 29 29 29 29 28 28 28 28 28 28 28 28 28 28 29 29 29 29 28 28 27 27 27 26 26 26 26 27 27
24 24 25 26 27 26 26 26 27 27 27 27 27 27 27 27 27 28 28 28 28 29 29 29 30 30 30 31 31 30 30 29 29 29 29 29 29 30 30 29 29 29 29 29 28 28 28 28 28 28 28 28 28 28 28 29 29 28 28 27 27 27 27 26 26 26 27 27 27
24 24 25 26 26 26 26 26 26 26 27 27 28 28 28 28 28 28 28 29 29 29 29 29 30 30 30 31 30 30 29 29 29 29 29 29 30 30 30 29 29 29 29 29 28 28 28 28 28 27 27 27 28 28 28 29 29 28 27 27 27 27 27 26 26 27 27 27 27
24 24 25 26 26 26 26 26 26 27 27 28 28 28 28 28 28 29 29 29 29 29 29 29 30 30 30 30 30 29 29 29 29 29 29 30 30 30 30 29 29 29 29 29 29 29 29 28 28 27 27 27 27 27 27 28 28 28 27 27 27 27 27 26 27 27 27 27 27
24 25 25 26 26 26 27 27 27 27 27 28 28 28 28 29 29 29 29 29 29 29 29 30 30 30 30 30 29 29 29 29 30 30 30 30 30 30 30 30 29 29 29 29 29 29 29 29 28 27 27 27 27 27 28 28 28 27 27 27 27 27 27 26 27 27 27 27 27
24 25 26 27 27 27 27 27 27 28 28 28 28 28 28 28 28 28 28 28 28 29 30 31 31 31 30 29 29 28 28 29 29 30 30 30 30 30 30 30 30 30 30 30 30 30 29 29 28 27 27 27 27 28 28 28 27 27 27 27 27 27 27 26 27 27 27 26 26
25 25 26 27 27 27 27 27 28 28 28 28 28 27 27 27 28 28 28 28 29 29 30 30 30 29 29 28 28 28 28 28 29 29 30 30 30 30 30 30 30 30 30 31 30 30 30 29 28 27 28 28 28 28 28 28 27 27 26 26 26 27 26 26 26 26 26 26 26
25 26 26 27 27 27 27 27 28 28 28 28 27 27 27 27 28 28 28 28 28 29 29 30 29 28 28 27 27 28 28 28 29 29 29 30 29 29 29 30 30 30 30 31 31 30 30 29 28 28 27 27 27 27 28 28 27 26 25 25 26 26 26 26 26 26 26 25 25
25 26 26 27 27 27 27 28 28 28 27 27 27 27 27 28 28 28 28 28 28 29 29 29 28 28 28 27 27 28 28 28 28 29 29 29 29 29 29 29 29 30 30 31 31 31 30 29 29 28 28 27 27 27 27 27 26 25 25 25 25 26 26 26 26 26 26 25 25
25 26 26 27 27 27 28 28 28 28 27 27 27 27 28 28 28 28 28 28 29 29 28 28 28 28 27 27 27 28 28 28 28 28 28 29 29 28 28 28 28 29 30 30 31 31 30 29 29 28 28 28 27 27 27 26 26 25 25 25 25 25 25 26 26 26 26 26 25
25 26 27 27 27 27 28 28 27 27 27 27 27 27 27 28 27 28 28 28 28 28 28 28 28 27 27 27 27 28 28 28 28 28 28 28 28 28 28 28 28 29 29 30 30 30 30 29 29 28 28 28 27 27 26 26 25 25 25 25 25 25 25 25 26 26 26 26 26
25 26 27 27 27 27 27 27 27 27 27 27 27 27 27 27 27 28 28 28 27 27 28 28 27 27 27 27 27 28 28 28 28 28 28 28 28 28 28 28 28 28 29 30 30 30 29 29 28 28 28 28 28 27 26 26 26 25 25 25 25 25 25 25 26 27 27 27 27
26 27 27 27 27 27 27 27 26 27 27 27 27 27 27 27 28 28 28 27 27 27 27 28 28 27 27 27 27 28 28 28 28 28 27 27 27 27 27 28 28 28 29 30 30 29 29 28 27 27 27 27 27 27 27 27 26 26 26 26 26 26 26 26 27 27 28 28 28
26 27 27 27 27 27 26 26 26 26 27 26 27 27 27 27 28 28 28 27 27 27 27 27 27 28 28 27 27 27 28 28 27 27 27 27 27 27 27 27 27 28 29 29 29 29 29 28 27 27 26 26 27 27 27 27 27 26 26 26 26 26 27 27 28 28 28 28 28
26 26 27 27 26 26 26 26 26 26 26 26 26 27 27 27 27 28 27 27 27 27 27 27 27 27 28 28 27 27 27 27 27 27 27 26 26 26 27 27 27 28 28 29 28 28 28 28 27 27 26 26 26 26 26 27 27 26 26 26 26 26 26 27 27 27 27 27 27
26 26 26 26 26 26 26 25 26 26 26 26 26 26 26 27 27 27 27 27 27 27 27 26 26 27 27 28 28 27 27 27 27 26 26 25 25 25 26 26 26 27 28 29 28 28 28 28 28 27 26 25 25 25 26 26 26 26 26 26 26 25 26 26 26 26 26 26 26
25 26 26 26 25 25 25 25 26 26 26 26 26 26 26 26 26 26 26 26 26 26 26 26 26 26 27 27 27 27 27 26 26 26 25 25 25 25 25 26 26 27 28 29 28 27 27 27 27 27 27 26 25 25 25 25 25 25 26 26 25 25 25 26 26 26 26 26 26
25 25 26 25 25 25 25 25 25 25 25 25 25 25 26 26 25 25 26 26 26 25 25 25 25 26 26 26 26 26 26 26 25 25 25 25 25 25 25 25 26 26 27 28 27 27 27 27 27 27 27 26 25 25 25 25 25 25 25 25 25 25 25 25 25 25 25 25 25
25 25 25 25 25 25 25 25 25 25 25 25 25 25 25 25 25 25 25 25 26 25 25 25 25 25 25 25 25 26 26 25 25 25 25 25 25 25 25 25 26 26 26 27 27 26 26 26 26 26 26 26 25 25 25 25 25 25 25 25 25 25 25 25 25 25 25 25 25
25 25 25 25 25 25 25 25 25 25 25 25 25 25 24 25 25 24 24 24 25 25 25 25 25 25 25 25 25 25 25 25 25 25 25 25 25 25 25 25 26 26 26 26 26 26 26 26 26 26 26 25 25 25 25 25 25 25 25 25 25 25 25 25 25 25 25 25 25
24 24 25 25 25 25 25 25 25 25 25 24 24 24 24 24 24 24 24 24 25 25 25 25 25 25 25 25 25 25 25 25 25 25 25 25 25 25 25 26 26 26 26 26 26 26 26 26 25 25 25 25 24 24 24 25 25 25 25 25 25 25 25 25 25 25 25 25 24
24 24 24 25 25 25 25 25 25 25 24 24 24 24 24 24 24 24 24 25 25 25 25 25 25 25 25 25 25 25 25 25 25 25 25 25 25 25 26 26 26 25 26 27 25 25 26 26 25 24 24 24 23 23 24 25 24 24 25 25 25 25 25 25 25 25 24 24 24
23 24 24 25 25 25 25 25 25 24 24 24 24 24 24 24 24 24 24 24 24 24 24 25 25 25 25 26 25 25 24 24 24 24 25 25 25 25 26 27 26 26 26 27 26 26 26 26 24 23 22 22 22 23 24 24 24 24 24 24 24 24 24 25 25 24 24 24 24
23 23 24 25 25 24 24 24 24 24 24 24 24 24 24 24 24 24 24 24 24 24 24 24 25 25 26 26 26 25 24 24 24 24 24 25 25 25 26 26 26 26 26 27 30 31 29 27 25 23 22 21 23 23 24 23 24 24 24 24 23 24 24 24 24 24 24 24 25
22 23 24 24 24 24 24 23 23 23 23 23 24 24 24 23 24 23 23 23 23 23 24 24 25 26 26 27 26 25 25 24 24 23 23 24 24 25 26 26 27 26 26 28 33 35 35 32 29 26 23 22 22 22 22 23 23 24 24 23 23 23 23 23 24 24 24 24 24
22 22 23 23 24 23 23 23 23 23 23 23 23 23 23 23 23 23 23 23 23 23 24 24 25 26 27 27 26 25 25 25 24 23 23 23 24 24 25 26 26 25 26 30 33 35 36 35 33 29 25 23 23 23 23 23 23 24 24 23 23 23 22 22 23 23 24 24 24
21 22 22 23 23 23 23 23 23 23 23 23 23 23 23 23 23 23 22 22 23 23 24 25 25 27 27 27 25 25 24 24 24 24 23 23 23 24 25 26 26 25 26 31 34 35 35 36 35 32 29 25 24 24 24 24 24 23 23 23 23 22 22 21 22 23 23 24 24
20 21 22 23 23 23 23 23 23 23 23 23 23 23 23 22 22 22 22 23 23 23 24 25 26 26 26 26 25 24 24 24 24 24 24 24 24 24 25 26 25 26 28 33 35 35 34 35 35 34 31 28 25 24 24 25 24 24 24 23 23 23 22 22 22 22 23 23 24
20 21 21 22 22 22 23 23 22 22 22 23 22 22 22 22 22 22 22 22 23 23 24 25 26 26 25 25 25 25 24 24 24 25 24 24 24 24 25 25 25 27 29 33 35 36 35 34 34 34 33 30 27 26 26 26 25 25 25 24 24 23 23 22 22 22 23 23 24
20 20 21 21 22 22 22 22 22 22 22 22 22 22 22 22 22 22 22 22 22 23 25 25 25 25 24 24 25 25 25 25 25 25 24 24 24 24 25 25 25 26 29 33 35 36 35 34 34 34 33 31 28 26 26 26 26 26 25 25 24 23 23 23 22 22 23 23 23
19 20 20 21 21 22 22 22 22 22 22 22 21 21 21 21 22 22 22 22 23 24 25 25 24 24 24 24 25 25 24 25 25 25 24 24 24 24 24 25 25 26 29 33 35 36 36 35 34 33 32 31 28 26 25 26 26 26 25 24 24 23 23 22 22 22 22 23 23
19 19 20 20 21 21 22 22 22 21 21 21 21 21 21 21 22 22 22 23 24 24 24 24 23 23 24 24 24 24 24 25 25 25 25 25 24 24 24 25 25 26 29 33 35 36 37 36 34 33 32 31 28 26 25 25 26 26 25 24 24 23 22 21 22 22 22 22 23
18 19 20 20 21 21 21 21 21 21 21 21 21 21 21 21 22 22 22 23 24 24 24 23 23 23 23 23 24 24 24 25 25 25 25 25 24 25 25 26 26 27 30 33 34 36 36 36 34 32 31 30 27 25 25 26 26 26 26 25 25 24 23 22 22 22 22 22 23
17 19 19 20 20 21 21 21 21 21 20 20 21 21 21 21 21 21 22 23 24 24 24 23 23 23 23 24 23 23 24 25 25 24 24 24 25 25 25 25 26 28 31 33 34 35 36 36 34 32 31 29 26 25 25 25 26 25 25 25 25 24 24 23 22 21 20 21 23
17 19 19 20 20 20 21 21 20 20 20 20 20 21 21 21 21 21 22 24 24 24 24 23 23 24 24 24 24 24 24 24 23 23 24 24 25 25 25 25 26 29 31 33 34 35 36 36 35 33 30 28 25 24 24 25 25 25 25 25 25 24 23 23 22 21 21 21 23
18 18 19 19 20 20 20 20 20 20 20 20 20 20 21 21 21 22 22 24 24 23 23 23 23 23 23 24 24 24 24 23 23 23 24 25 25 25 25 26 27 28 30 32 33 34 35 36 36 34 30 26 24 24 24 25 25 25 25 25 25 24 24 23 23 22 21 21 23
18 18 18 19 19 20 20 20 20 20 20 20 20 20 20 20 21 22 23 24 23 22 22 22 22 23 23 23 23 24 24 24 24 24 24 25 25 25 25 26 26 27 29 31 33 34 35 36 36 34 30 25 24 24 25 25 25 25 25 25 25 25 24 24 24 23 22 21 23
18 18 18 18 19 19 20 20 19 19 20 20 20 20 20 20 21 22 23 24 23 22 21 21 22 22 22 23 23 24 24 24 24 24 24 24 25 25 26 26 26 27 28 30 32 33 34 35 36 35 31 24 23 24 25 25 25 25 25 25 25 25 25 25 25 25 24 22 25
18 18 18 18 19 19 19 19 19 20 20 20 20 20 20 21 22 23 23 24 22 21 21 21 21 22 22 23 24 24 24 24 25 25 25 25 25 26 27 26 26 26 27 30 31 33 34 35 36 35 32 25 23 23 24 25 25 24 24 24 25 25 25 25 25 25 25 24 27
18 18 18 18 19 19 19 19 20 20 20 20 20 20 20 21 22 23 23 23 22 21 21 21 21 22 23 24 24 24 23 24 25 25 25 25 26 27 27 26 25 25 27 29 31 32 33 35 36 36 33 26 23 23 24 25 25 24 24 24 24 25 25 25 25 25 25 25 26
18 19 19 19 19 19 19 19 20 20 20 20 20 21 22 23 23 22 22 22 21 21 21 22 22 22 23 23 23 23 23 23 25 25 26 26 26 26 26 25 25 25 26 28 30 32 33 34 35 36 35 30 24 23 24 26 25 24 23 23 24 24 24 25 25 25 25 25 26
MSLP
1037.12 1036.96 1036.76 1036.52 1036.36 1036.16 1036.00 1035.84 1035.64 1035.52 1035.36 1035.16 1034.92 1034.68 1034.48 1034.20 1033.96 1033.64 1033.40 1033.12 1032.84 1032.52 1032.20 1031.84 1031.52 1031.12 1030.80 1030.52 1030.28 1030.00 1029.72 1029.36 1029.08 1028.76 1028.40 1028.04 1027.68 1027.32 1026.96 1026.64 1026.36 1026.08 1025.80 1025.52 1025.28 1025.12 1024.96 1024.80 1024.68 1024.52 1024.36 1024.24 1024.08 1023.96 1023.84 1023.76 1023.60 1023.44 1023.32 1023.20 1023.08 1022.96 1022.88 1022.76 1022.64 1022.48 1022.36 1022.20 1022.08
1037.08 1036.92 1036.80 1036.52 1036.36 1036.16 1035.96 1035.80 1035.64 1035.48 1035.36 1035.12 1034.88 1034.64 1034.36 1034.12 1033.88 1033.60 1033.28 1033.00 1032.76 1032.48 1032.12 1031.80 1031.44 1031.08 1030.80 1030.52 1030.24 1029.96 1029.68 1029.36 1029.00 1028.64 1028.24 1027.80 1027.40 1027.04 1026.68 1026.36 1026.04 1025.72 1025.44 1025.20 1024.96 1024.80 1024.64 1024.48 1024.36 1024.24 1024.12 1023.96 1023.84 1023.68 1023.60 1023.52 1023.36 1023.24 1023.08 1023.00 1022.92 1022.84 1022.72 1022.60 1022.48 1022.32 1022.20 1022.04 1021.92
1037.04 1036.88 1036.68 1036.48 1036.28 1036.08 1035.92 1035.72 1035.56 1035.36 1035.20 1034.96 1034.80 1034.52 1034.32 1034.08 1033.80 1033.52 1033.24 1032.92 1032.72 1032.40 1032.08 1031.72 1031.36 1031.04 1030.76 1030.44 1030.20 1029.96 1029.68 1029.36 1028.96 1028.52 1028.04 1027.60 1027.16 1026.76 1026.40 1026.08 1025.72 1025.36 1025.08 1024.80 1024.64 1024.52 1024.32 1024.16 1024.08 1023.96 1023.84 1023.72 1023.60 1023.48 1023.36 1023.28 1023.20 1023.08 1022.96 1022.80 1022.80 1022.72 1022.60 1022.44 1022.32 1022.20 1022.08 1021.88 1021.72
1036.96 1036.80 1036.60 1036.36 1036.20 1036.04 1035.84 1035.64 1035.48 1035.28 1035.08 1034.84 1034.64 1034.44 1034.24 1034.00 1033.76 1033.52 1033.24 1032.92 1032.60 1032.28 1032.00 1031.64 1031.32 1031.00 1030.72 1030.44 1030.16 1029.92 1029.64 1029.32 1028.88 1028.40 1027.92 1027.40 1027.00 1026.64 1026.24 1025.80 1025.44 1025.08 1024.76 1024.52 1024.32 1024.12 1023.96 1023.84 1023.76 1023.68 1023.56 1023.48 1023.36 1023.28 1023.20 1023.08 1023.04 1022.92 1022.84 1022.76 1022.68 1022.60 1022.48 1022.32 1022.20 1022.08 1021.92 1021.72 1021.60
1036.88 1036.72 1036.52 1036.32 1036.16 1035.96 1035.80 1035.64 1035.40 1035.20 1034.96 1034.76 1034.56 1034.36 1034.12 1033.92 1033.68 1033.40 1033.12 1032.84 1032.52 1032.24 1031.92 1031.60 1031.32 1031.00 1030.72 1030.48 1030.20 1029.88 1029.52 1029.16 1028.76 1028.28 1027.80 1027.36 1026.92 1026.52 1026.08 1025.68 1025.24 1024.88 1024.52 1024.16 1023.92 1023.72 1023.60 1023.52 1023.48 1023.40 1023.36 1023.32 1023.24 1023.12 1023.04 1022.96 1022.92 1022.84 1022.76 1022.64 1022.60 1022.52 1022.36 1022.20 1022.08 1021.96 1021.80 1021.60 1021.44
1036.80 1036.64 1036.48 1036.28 1036.08 1035.92 1035.72 1035.52 1035.36 1035.12 1034.92 1034.68 1034.48 1034.24 1034.08 1033.84 1033.60 1033.36 1033.08 1032.80 1032.48 1032.12 1031.80 1031.44 1031.20 1030.96 1030.76 1030.52 1030.24 1029.84 1029.44 1029.04 1028.60 1028.20 1027.76 1027.28 1026.84 1026.44 1026.04 1025.60 1025.16 1024.72 1024.28 1023.96 1023.64 1023.48 1023.36 1023.28 1023.24 1023.24 1023.24 1023.20 1023.08 1023.00 1022.92 1022.88 1022.80 1022.68 1022.64 1022.52 1022.48 1022.36 1022.24 1022.12 1021.96 1021.80 1021.64 1021.52 1021.36
1036.76 1036.56 1036.36 1036.20 1036.00 1035.80 1035.64 1035.44 1035.24 1035.00 1034.80 1034.60 1034.36 1034.16 1033.96 1033.80 1033.56 1033.28 1033.04 1032.80 1032.40 1032.00 1031.64 1031.36 1031.12 1030.92 1030.80 1030.52 1030.20 1029.80 1029.36 1028.92 1028.52 1028.08 1027.68 1027.24 1026.84 1026.44 1026.04 1025.64 1025.16 1024.68 1024.24 1023.84 1023.52 1023.36 1023.24 1023.16 1023.12 1023.08 1023.04 1023.00 1022.92 1022.80 1022.76 1022.76 1022.68 1022.60 1022.52 1022.40 1022.32 1022.24 1022.16 1022.04 1021.88 1021.72 1021.52 1021.36 1021.20
1036.68 1036.52 1036.32 1036.12 1035.96 1035.72 1035.52 1035.32 1035.12 1034.92 1034.72 1034.52 1034.32 1034.12 1033.96 1033.72 1033.44 1033.24 1032.96 1032.68 1032.32 1031.96 1031.60 1031.32 1031.12 1031.00 1030.80 1030.56 1030.20 1029.80 1029.36 1028.92 1028.52 1028.08 1027.68 1027.28 1026.88 1026.52 1026.08 1025.64 1025.20 1024.72 1024.32 1023.96 1023.64 1023.36 1023.20 1023.08 1023.04 1022.96 1022.92 1022.88 1022.80 1022.72 1022.64 1022.64 1022.60 1022.52 1022.44 1022.36 1022.24 1022.12 1022.04 1021.92 1021.80 1021.64 1021.40 1021.20 1021.04
1036.60 1036.40 1036.20 1036.00 1035.80 1035.64 1035.40 1035.20 1035.00 1034.84 1034.64 1034.44 1034.24 1034.08 1033.88 1033.64 1033.36 1033.16 1032.92 1032.60 1032.24 1031.92 1031.60 1031.32 1031.12 1030.96 1030.76 1030.52 1030.20 1029.80 1029.36 1028.96 1028.56 1028.20 1027.80 1027.36 1026.96 1026.56 1026.16 1025.72 1025.24 1024.80 1024.40 1024.08 1023.76 1023.48 1023.24 1023.08 1023.00 1022.92 1022.88 1022.80 1022.72 1022.64 1022.60 1022.60 1022.52 1022.48 1022.36 1022.24 1022.12 1022.00 1021.88 1021.80 1021.64 1021.48 1021.28 1021.08 1020.84
1036.48 1036.28 1036.08 1035.84 1035.68 1035.52 1035.28 1035.08 1034.92 1034.80 1034.56 1034.36 1034.16 1034.00 1033.80 1033.56 1033.36 1033.08 1032.84 1032.56 1032.24 1031.84 1031.56 1031.32 1031.12 1030.92 1030.68 1030.44 1030.08 1029.76 1029.36 1029.00 1028.64 1028.24 1027.84 1027.40 1027.08 1026.68 1026.28 1025.88 1025.44 1025.00 1024.60 1024.28 1023.96 1023.64 1023.36 1023.24 1023.04 1022.92 1022.84 1022.80 1022.68 1022.64 1022.60 1022.52 1022.48 1022.40 1022.32 1022.16 1022.04 1021.92 1021.80 1021.64 1021.52 1021.36 1021.16 1020.92 1020.72
1036.36 1036.16 1035.96 1035.76 1035.56 1035.36 1035.24 1035.04 1034.84 1034.68 1034.52 1034.28 1034.08 1033.92 1033.72 1033.48 1033.28 1033.04 1032.76 1032.48 1032.20 1031.84 1031.52 1031.28 1031.08 1030.92 1030.68 1030.40 1030.08 1029.72 1029.36 1029.08 1028.72 1028.36 1027.96 1027.52 1027.20 1026.84 1026.48 1026.08 1025.60 1025.16 1024.80 1024.52 1024.20 1023.88 1023.60 1023.36 1023.16 1023.00 1022.84 1022.76 1022.64 1022.64 1022.56 1022.52 1022.40 1022.32 1022.24 1022.08 1021.96 1021.80 1021.64 1021.48 1021.32 1021.20 1021.00 1020.80 1020.56
1036.24 1036.04 1035.84 1035.68 1035.52 1035.32 1035.12 1034.92 1034.76 1034.56 1034.36 1034.24 1034.00 1033.80 1033.60 1033.36 1033.16 1032.92 1032.64 1032.36 1032.08 1031.80 1031.48 1031.24 1031.08 1030.92 1030.68 1030.36 1030.08 1029.76 1029.40 1029.08 1028.76 1028.44 1028.04 1027.64 1027.28 1026.96 1026.60 1026.16 1025.72 1025.32 1024.96 1024.72 1024.40 1024.12 1023.88 1023.64 1023.44 1023.24 1022.96 1022.80 1022.68 1022.64 1022.56 1022.48 1022.36 1022.24 1022.12 1022.00 1021.84 1021.68 1021.52 1021.36 1021.16 1021.04 1020.84 1020.64 1020.48
1036.16 1035.96 1035.76 1035.56 1035.40 1035.24 1035.08 1034.88 1034.72 1034.52 1034.32 1034.12 1033.96 1033.76 1033.52 1033.32 1033.08 1032.80 1032.56 1032.28 1032.04 1031.76 1031.48 1031.20 1031.04 1030.88 1030.72 1030.44 1030.12 1029.80 1029.44 1029.08 1028.76 1028.44 1028.08 1027.72 1027.36 1027.08 1026.68 1026.24 1025.84 1025.44 1025.08 1024.84 1024.64 1024.36 1024.12 1023.92 1023.68 1023.48 1023.24 1023.00 1022.84 1022.72 1022.60 1022.48 1022.36 1022.24 1022.08 1021.92 1021.80 1021.60 1021.40 1021.24 1021.08 1020.88 1020.68 1020.48 1020.32
1036.08 1035.84 1035.64 1035.48 1035.32 1035.16 1034.96 1034.80 1034.64 1034.44 1034.24 1034.04 1033.88 1033.72 1033.52 1033.24 1033.04 1032.80 1032.52 1032.28 1032.04 1031.76 1031.44 1031.20 1030.96 1030.84 1030.72 1030.48 1030.16 1029.80 1029.48 1029.12 1028.80 1028.44 1028.08 1027.80 1027.48 1027.12 1026.76 1026.36 1025.96 1025.60 1025.24 1025.04 1024.80 1024.56 1024.36 1024.08 1023.92 1023.76 1023.52 1023.32 1023.08 1022.92 1022.72 1022.56 1022.40 1022.28 1022.12 1021.96 1021.80 1021.64 1021.44 1021.24 1021.08 1020.88 1020.68 1020.48 1020.24
1035.96 1035.76 1035.56 1035.40 1035.24 1035.08 1034.92 1034.76 1034.56 1034.36 1034.16 1033.96 1033.80 1033.64 1033.48 1033.24 1032.96 1032.76 1032.52 1032.28 1032.00 1031.72 1031.44 1031.20 1030.96 1030.80 1030.64 1030.44 1030.16 1029.84 1029.52 1029.12 1028.80 1028.44 1028.12 1027.80 1027.52 1027.16 1026.84 1026.48 1026.12 1025.72 1025.36 1025.16 1024.96 1024.76 1024.52 1024.32 1024.12 1023.96 1023.76 1023.56 1023.36 1023.12 1022.92 1022.76 1022.60 1022.44 1022.28 1022.12 1022.00 1021.80 1021.64 1021.40 1021.24 1021.04 1020.84 1020.64 1020.36
1035.88 1035.68 1035.52 1035.36 1035.20 1035.00 1034.88 1034.72 1034.52 1034.32 1034.12 1033.96 1033.80 1033.64 1033.44 1033.20 1032.96 1032.72 1032.52 1032.24 1031.96 1031.68 1031.44 1031.20 1031.00 1030.80 1030.56 1030.36 1030.08 1029.80 1029.48 1029.16 1028.80 1028.48 1028.16 1027.88 1027.56 1027.24 1026.92 1026.60 1026.28 1025.88 1025.52 1025.28 1025.08 1024.88 1024.64 1024.44 1024.24 1024.08 1023.92 1023.72 1023.52 1023.36 1023.12 1022.96 1022.80 1022.64 1022.52 1022.36 1022.24 1022.08 1021.84 1021.64 1021.44 1021.24 1021.00 1020.80 1020.52
1035.80 1035.60 1035.40 1035.24 1035.08 1034.92 1034.80 1034.64 1034.48 1034.28 1034.12 1033.96 1033.76 1033.56 1033.36 1033.16 1032.92 1032.72 1032.48 1032.24 1031.96 1031.64 1031.40 1031.20 1030.96 1030.76 1030.52 1030.32 1030.08 1029.80 1029.52 1029.20 1028.88 1028.52 1028.24 1027.96 1027.64 1027.36 1027.04 1026.72 1026.40 1026.08 1025.72 1025.48 1025.24 1025.04 1024.80 1024.56 1024.36 1024.16 1023.96 1023.80 1023.64 1023.52 1023.32 1023.12 1022.96 1022.80 1022.64 1022.52 1022.36 1022.20 1022.04 1021.80 1021.64 1021.40 1021.16 1020.92 1020.68
1035.68 1035.52 1035.36 1035.20 1035.04 1034.88 1034.72 1034.56 1034.40 1034.24 1034.08 1033.92 1033.72 1033.52 1033.36 1033.16 1032.92 1032.72 1032.44 1032.20 1031.96 1031.68 1031.40 1031.16 1030.92 1030.72 1030.52 1030.32 1030.08 1029.84 1029.56 1029.28 1028.96 1028.64 1028.36 1028.04 1027.76 1027.44 1027.12 1026.80 1026.52 1026.24 1025.96 1025.64 1025.40 1025.20 1024.92 1024.72 1024.48 1024.24 1024.08 1023.88 1023.72 1023.60 1023.40 1023.24 1023.08 1022.92 1022.72 1022.60 1022.48 1022.32 1022.12 1021.96 1021.76 1021.56 1021.32 1021.08 1020.84
1035.60 1035.44 1035.28 1035.12 1034.92 1034.80 1034.64 1034.48 1034.32 1034.20 1034.04 1033.88 1033.68 1033.52 1033.32 1033.12 1032.92 1032.64 1032.40 1032.16 1031.92 1031.64 1031.40 1031.16 1030.84 1030.64 1030.44 1030.24 1030.08 1029.84 1029.64 1029.36 1029.08 1028.76 1028.44 1028.12 1027.80 1027.44 1027.12 1026.84 1026.56 1026.32 1026.08 1025.84 1025.56 1025.28 1025.04 1024.80 1024.56 1024.36 1024.16 1023.96 1023.80 1023.64 1023.44 1023.28 1023.16 1023.00 1022.84 1022.64 1022.52 1022.36 1022.24 1022.08 1021.88 1021.64 1021.48 1021.24 1021.04
1035.56 1035.40 1035.24 1035.08 1034.88 1034.72 1034.56 1034.40 1034.24 1034.12 1033.96 1033.80 1033.64 1033.48 1033.24 1033.08 1032.80 1032.60 1032.36 1032.12 1031.88 1031.64 1031.40 1031.12 1030.84 1030.56 1030.32 1030.12 1029.96 1029.80 1029.60 1029.36 1029.08 1028.80 1028.52 1028.16 1027.84 1027.52 1027.16 1026.84 1026.56 1026.36 1026.16 1025.96 1025.64 1025.32 1025.08 1024.84 1024.64 1024.44 1024.24 1024.08 1023.88 1023.72 1023.52 1023.36 1023.24 1023.08 1022.92 1022.76 1022.60 1022.48 1022.32 1022.12 1021.96 1021.80 1021.56 1021.36 1021.12
1035.52 1035.36 1035.20 1035.00 1034.84 1034.68 1034.52 1034.36 1034.24 1034.08 1033.92 1033.80 1033.60 1033.40 1033.20 1032.96 1032.80 1032.56 1032.36 1032.12 1031.84 1031.60 1031.36 1031.08 1030.80 1030.52 1030.28 1030.04 1029.84 1029.68 1029.52 1029.32 1029.12 1028.88 1028.56 1028.24 1027.92 1027.60 1027.24 1026.92 1026.56 1026.32 1026.08 1025.88 1025.64 1025.36 1025.08 1024.84 1024.64 1024.48 1024.32 1024.12 1023.96 1023.80 1023.64 1023.44 1023.32 1023.16 1023.00 1022.84 1022.68 1022.52 1022.36 1022.20 1022.04 1021.84 1021.64 1021.40 1021.20
1035.48 1035.32 1035.16 1034.92 1034.80 1034.64 1034.44 1034.24 1034.16 1034.00 1033.84 1033.72 1033.52 1033.32 1033.12 1032.92 1032.72 1032.52 1032.28 1032.08 1031.80 1031.56 1031.28 1031.04 1030.76 1030.52 1030.28 1030.04 1029.84 1029.64 1029.44 1029.28 1029.08 1028.84 1028.56 1028.28 1027.96 1027.64 1027.32 1026.96 1026.60 1026.28 1026.04 1025.80 1025.60 1025.28 1024.96 1024.80 1024.64 1024.48 1024.32 1024.16 1024.00 1023.84 1023.68 1023.52 1023.36 1023.20 1023.04 1022.92 1022.72 1022.60 1022.44 1022.24 1022.08 1021.92 1021.68 1021.52 1021.24
1035.44 1035.24 1035.08 1034.88 1034.72 1034.56 1034.36 1034.24 1034.08 1033.96 1033.80 1033.64 1033.44 1033.24 1033.08 1032.88 1032.64 1032.44 1032.24 1032.00 1031.80 1031.52 1031.24 1031.00 1030.76 1030.48 1030.24 1030.00 1029.80 1029.60 1029.40 1029.20 1028.92 1028.68 1028.48 1028.24 1027.96 1027.64 1027.32 1026.96 1026.60 1026.28 1025.96 1025.68 1025.48 1025.16 1024.84 1024.72 1024.60 1024.44 1024.32 1024.16 1024.04 1023.88 1023.72 1023.56 1023.40 1023.24 1023.08 1022.92 1022.72 1022.60 1022.44 1022.28 1022.12 1021.92 1021.72 1021.52 1021.32
1035.40 1035.24 1035.04 1034.80 1034.64 1034.52 1034.36 1034.20 1034.08 1033.92 1033.72 1033.52 1033.40 1033.24 1033.04 1032.84 1032.64 1032.44 1032.20 1031.96 1031.76 1031.52 1031.24 1030.96 1030.72 1030.44 1030.12 1029.92 1029.68 1029.52 1029.36 1029.08 1028.80 1028.52 1028.28 1028.08 1027.88 1027.64 1027.32 1026.96 1026.64 1026.36 1026.00 1025.60 1025.20 1024.80 1024.60 1024.52 1024.52 1024.40 1024.28 1024.20 1024.04 1023.88 1023.80 1023.64 1023.52 1023.28 1023.12 1022.92 1022.76 1022.60 1022.40 1022.24 1022.08 1021.92 1021.72 1021.52 1021.32
1035.36 1035.20 1035.00 1034.80 1034.64 1034.48 1034.32 1034.16 1034.00 1033.84 1033.64 1033.52 1033.36 1033.16 1032.96 1032.80 1032.56 1032.36 1032.16 1031.92 1031.68 1031.44 1031.20 1030.92 1030.68 1030.36 1030.04 1029.80 1029.60 1029.44 1029.24 1029.04 1028.80 1028.52 1028.24 1027.96 1027.76 1027.52 1027.24 1026.96 1026.64 1026.36 1026.04 1025.52 1024.92 1024.48 1024.24 1024.24 1024.32 1024.32 1024.24 1024.16 1024.00 1023.88 1023.80 1023.64 1023.52 1023.36 1023.20 1023.00 1022.80 1022.64 1022.44 1022.20 1022.04 1021.88 1021.68 1021.52 1021.28
1035.32 1035.12 1034.92 1034.76 1034.60 1034.40 1034.24 1034.08 1033.96 1033.80 1033.60 1033.44 1033.28 1033.12 1032.92 1032.76 1032.52 1032.32 1032.12 1031.88 1031.64 1031.40 1031.16 1030.88 1030.64 1030.32 1030.04 1029.80 1029.56 1029.36 1029.16 1028.96 1028.76 1028.52 1028.24 1027.96 1027.68 1027.44 1027.16 1026.88 1026.64 1026.40 1026.04 1025.48 1024.92 1024.44 1024.12 1024.04 1024.08 1024.20 1024.20 1024.08 1023.96 1023.80 1023.72 1023.64 1023.52 1023.40 1023.24 1023.08 1022.92 1022.72 1022.52 1022.24 1022.00 1021.80 1021.60 1021.44 1021.24
1035.24 1035.08 1034.88 1034.68 1034.56 1034.36 1034.20 1034.04 1033.88 1033.72 1033.56 1033.36 1033.24 1033.08 1032.88 1032.72 1032.52 1032.32 1032.08 1031.84 1031.60 1031.36 1031.08 1030.84 1030.60 1030.32 1030.08 1029.84 1029.64 1029.40 1029.16 1028.92 1028.68 1028.48 1028.24 1028.00 1027.68 1027.36 1027.08 1026.80 1026.60 1026.36 1026.04 1025.44 1024.96 1024.56 1024.24 1024.00 1023.96 1023.96 1024.04 1024.00 1023.92 1023.80 1023.68 1023.56 1023.48 1023.36 1023.24 1023.08 1022.92 1022.76 1022.60 1022.36 1022.12 1021.88 1021.64 1021.40 1021.20
1035.24 1035.00 1034.80 1034.64 1034.48 1034.28 1034.12 1033.96 1033.80 1033.64 1033.52 1033.36 1033.20 1033.04 1032.84 1032.64 1032.48 1032.24 1032.04 1031.80 1031.60 1031.32 1031.04 1030.80 1030.56 1030.36 1030.12 1029.92 1029.68 1029.48 1029.24 1029.00 1028.76 1028.48 1028.20 1027.96 1027.64 1027.36 1027.08 1026.80 1026.52 1026.28 1025.92 1025.36 1024.92 1024.64 1024.36 1024.08 1023.96 1023.84 1023.84 1023.88 1023.88 1023.80 1023.64 1023.52 1023.44 1023.32 1023.20 1023.08 1022.92 1022.76 1022.60 1022.44 1022.24 1021.96 1021.68 1021.48 1021.24
1035.16 1034.96 1034.80 1034.60 1034.40 1034.24 1034.08 1033.92 1033.72 1033.60 1033.48 1033.32 1033.16 1032.96 1032.80 1032.64 1032.40 1032.20 1031.96 1031.76 1031.52 1031.28 1031.00 1030.80 1030.60 1030.36 1030.20 1030.00 1029.76 1029.48 1029.24 1029.00 1028.76 1028.52 1028.24 1027.96 1027.64 1027.32 1027.04 1026.76 1026.52 1026.20 1025.80 1025.28 1024.76 1024.48 1024.36 1024.24 1024.00 1023.84 1023.80 1023.76 1023.72 1023.64 1023.56 1023.52 1023.36 1023.24 1023.16 1023.08 1022.92 1022.80 1022.64 1022.44 1022.28 1022.04 1021.76 1021.52 1021.24
1035.12 1034.92 1034.76 1034.56 1034.36 1034.20 1034.00 1033.88 1033.72 1033.60 1033.44 1033.24 1033.08 1032.92 1032.76 1032.52 1032.36 1032.12 1031.96 1031.72 1031.52 1031.24 1031.00 1030.80 1030.64 1030.40 1030.24 1030.00 1029.76 1029.52 1029.24 1029.04 1028.80 1028.52 1028.24 1028.00 1027.64 1027.36 1027.08 1026.80 1026.52 1026.24 1025.84 1025.36 1024.80 1024.44 1024.28 1024.24 1024.08 1023.96 1023.84 1023.76 1023.68 1023.60 1023.52 1023.48 1023.36 1023.24 1023.16 1023.08 1022.92 1022.80 1022.64 1022.48 1022.28 1022.08 1021.80 1021.52 1021.24
1035.04 1034.88 1034.72 1034.52 1034.32 1034.16 1033.96 1033.80 1033.64 1033.52 1033.36 1033.24 1033.08 1032.88 1032.64 1032.48 1032.28 1032.08 1031.96 1031.72 1031.48 1031.24 1031.00 1030.80 1030.64 1030.40 1030.20 1029.96 1029.72 1029.52 1029.24 1029.00 1028.76 1028.52 1028.28 1028.08 1027.76 1027.48 1027.20 1026.88 1026.56 1026.24 1025.84 1025.36 1024.88 1024.48 1024.24 1024.20 1024.12 1024.04 1023.96 1023.80 1023.68 1023.56 1023.48 1023.40 1023.36 1023.24 1023.16 1023.08 1022.92 1022.80 1022.64 1022.52 1022.28 1022.08 1021.80 1021.60 1021.28
1034.96 1034.80 1034.64 1034.48 1034.24 1034.08 1033.92 1033.80 1033.64 1033.52 1033.36 1033.20 1033.00 1032.80 1032.64 1032.44 1032.24 1032.08 1031.92 1031.68 1031.40 1031.16 1030.96 1030.80 1030.60 1030.36 1030.12 1029.92 1029.64 1029.44 1029.24 1029.00 1028.72 1028.52 1028.28 1028.08 1027.84 1027.56 1027.24 1026.84 1026.56 1026.24 1025.80 1025.36 1024.92 1024.52 1024.20 1024.08 1024.08 1024.12 1024.08 1023.96 1023.80 1023.64 1023.48 1023.36 1023.24 1023.20 1023.12 1023.04 1022.92 1022.80 1022.64 1022.52 1022.28 1022.08 1021.84 1021.60 1021.32
1034.92 1034.76 1034.56 1034.40 1034.24 1034.00 1033.84 1033.68 1033.56 1033.40 1033.28 1033.08 1032.92 1032.72 1032.56 1032.36 1032.20 1032.00 1031.80 1031.60 1031.36 1031.12 1030.92 1030.76 1030.60 1030.36 1030.12 1029.92 1029.68 1029.44 1029.20 1028.96 1028.72 1028.52 1028.28 1028.08 1027.80 1027.52 1027.16 1026.80 1026.52 1026.16 1025.76 1025.32 1024.92 1024.52 1024.16 1024.00 1024.08 1024.12 1024.12 1024.08 1023.96 1023.76 1023.52 1023.28 1023.16 1023.08 1023.04 1022.96 1022.84 1022.68 1022.56 1022.48 1022.28 1022.08 1021.92 1021.64 1021.36
1034.84 1034.64 1034.52 1034.32 1034.12 1033.96 1033.80 1033.60 1033.48 1033.32 1033.20 1033.00 1032.80 1032.64 1032.52 1032.32 1032.12 1031.96 1031.76 1031.52 1031.32 1031.08 1030.92 1030.80 1030.60 1030.36 1030.16 1029.96 1029.72 1029.48 1029.20 1028.92 1028.68 1028.48 1028.24 1028.00 1027.72 1027.40 1027.08 1026.80 1026.48 1026.08 1025.68 1025.24 1024.88 1024.52 1024.16 1023.92 1024.00 1024.08 1024.12 1024.08 1024.08 1023.88 1023.52 1023.24 1023.08 1023.04 1023.00 1022.88 1022.76 1022.64 1022.52 1022.36 1022.24 1022.08 1021.96 1021.72 1021.40
1034.80 1034.64 1034.44 1034.24 1034.08 1033.88 1033.72 1033.52 1033.40 1033.24 1033.12 1032.92 1032.76 1032.56 1032.40 1032.24 1032.08 1031.96 1031.72 1031.48 1031.24 1031.08 1030.92 1030.76 1030.56 1030.36 1030.12 1029.88 1029.64 1029.40 1029.16 1028.92 1028.72 1028.52 1028.24 1027.96 1027.64 1027.36 1027.04 1026.68 1026.36 1026.00 1025.60 1025.24 1024.84 1024.52 1024.12 1023.80 1023.80 1023.96 1024.12 1024.12 1024.16 1023.96 1023.60 1023.24 1023.08 1022.96 1022.92 1022.80 1022.68 1022.56 1022.48 1022.28 1022.16 1022.00 1021.88 1021.68 1021.40
1034.64 1034.52 1034.40 1034.24 1034.00 1033.80 1033.64 1033.52 1033.32 1033.16 1033.00 1032.84 1032.64 1032.48 1032.28 1032.16 1032.00 1031.88 1031.68 1031.40 1031.24 1031.08 1030.88 1030.68 1030.48 1030.24 1030.04 1029.80 1029.56 1029.36 1029.08 1028.92 1028.68 1028.44 1028.16 1027.88 1027.60 1027.28 1026.92 1026.60 1026.24 1025.92 1025.56 1025.24 1024.84 1024.48 1024.08 1023.76 1023.52 1023.68 1023.96 1024.12 1024.08 1023.96 1023.60 1023.24 1023.00 1022.92 1022.84 1022.76 1022.64 1022.52 1022.36 1022.24 1022.08 1021.96 1021.80 1021.64 1021.36
1034.56 1034.48 1034.36 1034.16 1033.96 1033.76 1033.60 1033.44 1033.28 1033.08 1032.92 1032.76 1032.60 1032.40 1032.24 1032.08 1031.92 1031.76 1031.56 1031.36 1031.16 1031.00 1030.80 1030.64 1030.40 1030.20 1029.96 1029.80 1029.52 1029.24 1029.04 1028.84 1028.64 1028.36 1028.08 1027.80 1027.56 1027.24 1026.92 1026.52 1026.20 1025.88 1025.60 1025.24 1024.80 1024.40 1024.04 1023.68 1023.32 1023.36 1023.72 1024.00 1024.00 1023.80 1023.52 1023.20 1022.92 1022.80 1022.76 1022.64 1022.56 1022.44 1022.36 1022.16 1022.00 1021.84 1021.72 1021.60 1021.28
1034.44 1034.36 1034.24 1034.08 1033.92 1033.68 1033.52 1033.36 1033.24 1033.04 1032.84 1032.64 1032.48 1032.36 1032.20 1032.04 1031.84 1031.64 1031.48 1031.24 1031.12 1030.96 1030.80 1030.56 1030.36 1030.16 1029.96 1029.72 1029.48 1029.20 1028.96 1028.80 1028.56 1028.32 1028.04 1027.76 1027.52 1027.24 1026.88 1026.52 1026.20 1025.92 1025.60 1025.20 1024.80 1024.36 1023.96 1023.60 1023.24 1023.20 1023.48 1023.80 1023.80 1023.68 1023.44 1023.12 1022.84 1022.76 1022.72 1022.64 1022.52 1022.40 1022.28 1022.12 1021.96 1021.76 1021.60 1021.48 1021.16
1034.32 1034.24 1034.16 1034.04 1033.84 1033.64 1033.44 1033.28 1033.08 1032.92 1032.80 1032.60 1032.40 1032.24 1032.08 1031.96 1031.76 1031.52 1031.36 1031.24 1031.12 1030.96 1030.80 1030.56 1030.32 1030.08 1029.88 1029.64 1029.36 1029.08 1028.88 1028.64 1028.44 1028.24 1027.96 1027.68 1027.44 1027.16 1026.84 1026.52 1026.24 1025.96 1025.60 1025.20 1024.76 1024.32 1023.88 1023.52 1023.12 1022.96 1023.24 1023.72 1023.72 1023.60 1023.36 1023.04 1022.80 1022.76 1022.72 1022.64 1022.52 1022.36 1022.20 1022.08 1021.92 1021.68 1021.52 1021.36 1021.08
1034.24 1034.12 1034.04 1033.92 1033.72 1033.52 1033.36 1033.24 1033.04 1032.84 1032.68 1032.52 1032.36 1032.16 1032.00 1031.80 1031.64 1031.44 1031.28 1031.16 1031.08 1030.92 1030.72 1030.52 1030.24 1030.00 1029.80 1029.52 1029.28 1029.04 1028.80 1028.52 1028.28 1028.08 1027.84 1027.60 1027.36 1027.08 1026.80 1026.56 1026.28 1025.96 1025.64 1025.24 1024.80 1024.36 1023.92 1023.52 1023.08 1022.80 1022.88 1023.48 1023.56 1023.48 1023.24 1022.96 1022.76 1022.72 1022.72 1022.64 1022.52 1022.36 1022.16 1022.00 1021.84 1021.64 1021.48 1021.28 1021.08
1034.12 1034.00 1033.88 1033.72 1033.56 1033.44 1033.32 1033.16 1032.96 1032.80 1032.60 1032.44 1032.28 1032.08 1031.92 1031.68 1031.56 1031.40 1031.28 1031.12 1030.96 1030.80 1030.60 1030.36 1030.12 1029.92 1029.68 1029.48 1029.24 1028.92 1028.64 1028.36 1028.12 1027.92 1027.68 1027.52 1027.28 1027.00 1026.76 1026.52 1026.28 1025.96 1025.64 1025.24 1024.80 1024.36 1023.96 1023.56 1023.16 1022.72 1022.56 1022.88 1023.24 1023.32 1023.12 1022.84 1022.76 1022.72 1022.72 1022.64 1022.52 1022.36 1022.20 1021.96 1021.80 1021.64 1021.44 1021.24 1021.00
Wind_Speed
7 6 6 6 6 6 6 6 6 6 7 7 7 7 8 8 8 8 8 8 9 9 10 10 11 12 14 17 19 19 19 20 21 22 22 22 21 21 21 20 19 18 18 18 17 15 14 13 12 10 8 8 9 9 9 8 9 10 10 10 9 9 9 10 10 11 12 13 11
7 7 6 7 7 6 6 6 6 7 7 7 7 7 8 8 8 8 9 9 9 9 10 10 12 14 16 18 18 18 19 20 22 22 22 21 21 21 20 19 19 18 18 18 16 14 12 12 11 9 8 7 8 8 9 8 9 10 10 11 9 8 8 8 9 10 11 11 10
7 6 6 6 7 7 7 6 7 8 8 8 7 7 7 7 8 8 9 9 10 11 11 10 12 14 16 18 17 18 18 19 21 21 21 20 20 21 21 19 19 19 18 17 15 13 12 11 10 9 8 7 8 8 8 9 9 9 10 10 8 7 6 6 8 8 8 8 9
7 7 7 7 9 9 8 7 8 9 9 7 8 8 8 7 7 8 9 11 12 11 11 11 12 13 15 16 18 19 19 20 21 21 20 20 20 21 21 21 20 19 18 16 14 13 13 12 9 7 7 8 9 9 8 8 9 8 8 7 6 6 6 6 7 7 7 7 8
7 7 7 8 9 10 9 8 9 9 9 7 7 7 7 7 8 9 9 10 11 11 12 14 13 13 14 16 19 20 20 20 20 19 19 20 20 20 21 22 21 19 18 16 14 13 12 11 8 6 6 7 7 7 8 8 8 8 7 6 6 6 6 6 6 6 7 7 7
7 7 8 8 10 9 9 8 10 10 9 8 8 9 9 8 9 10 10 11 12 13 15 15 14 14 15 17 18 19 19 19 18 19 19 20 19 20 21 22 22 20 18 16 14 13 11 9 6 5 5 6 6 7 8 8 8 7 7 6 6 6 6 7 6 7 7 8 9
7 8 8 9 10 10 9 9 9 9 9 8 10 11 11 11 11 12 13 12 12 13 13 13 13 14 15 16 17 17 18 18 18 19 20 19 20 21 21 22 22 21 19 17 15 12 10 7 5 5 5 5 5 6 7 7 7 7 7 7 6 6 6 7 7 7 8 10 11
7 8 9 9 9 10 10 10 10 9 9 8 10 11 13 13 14 14 14 13 12 12 12 12 14 15 16 16 16 17 17 18 19 19 19 19 20 21 21 21 21 21 19 17 15 13 10 7 5 4 4 4 4 5 6 7 7 8 8 8 7 7 6 6 7 7 8 11 12
7 8 9 9 9 9 10 10 10 10 10 10 11 12 13 14 14 14 13 12 12 13 13 12 14 16 16 16 16 16 17 17 18 18 19 19 20 21 20 20 20 19 17 16 15 15 12 8 5 4 4 4 4 5 6 8 8 9 9 8 8 7 7 7 8 8 9 10 12
8 8 9 9 9 10 10 10 10 10 11 11 12 12 13 14 14 13 12 11 12 13 14 13 14 15 15 16 16 16 16 16 16 18 19 19 20 20 20 19 20 18 16 15 15 14 13 9 8 7 6 5 5 6 7 8 8 9 8 7 7 8 9 9 9 10 10 10 11
8 9 9 9 10 10 10 10 10 10 10 11 12 12 13 13 13 13 12 12 13 14 15 14 14 14 14 14 15 15 16 15 16 17 18 19 19 20 20 19 20 18 16 15 14 13 12 11 11 11 9 7 6 6 6 7 7 8 8 7 8 9 10 10 9 9 9 9 10
8 9 9 9 10 10 10 9 9 9 10 11 12 12 12 12 13 13 13 13 14 14 14 14 14 14 13 13 14 15 15 16 17 17 17 18 19 19 20 20 20 18 15 15 14 12 11 12 13 14 13 11 8 6 6 6 7 7 7 8 8 8 9 9 9 8 7 8 9
9 9 9 9 10 10 10 9 9 9 10 11 11 11 11 11 13 13 14 14 14 13 13 14 13 13 13 13 14 14 15 16 17 17 17 17 18 19 19 19 20 18 15 13 13 12 12 12 14 14 14 14 11 9 9 8 8 7 8 8 8 8 8 9 9 8 7 8 8
9 9 10 10 10 10 9 9 8 9 9 11 11 11 11 11 12 12 13 13 13 13 13 13 12 12 12 13 14 15 16 16 16 17 17 17 17 18 18 18 19 17 14 12 12 13 13 12 13 13 14 14 13 12 12 11 10 10 10 10 10 10 10 10 10 10 10 10 10
9 9 10 10 10 9 9 9 8 8 9 11 11 11 10 10 11 11 12 12 13 13 12 12 12 12 12 13 14 15 16 16 17 17 17 17 18 18 18 18 18 17 14 12 12 12 12 12 12 12 12 12 12 12 12 12 12 11 11 12 12 12 12 12 12 12 12 12 12
8 9 10 9 9 9 9 8 8 8 9 10 10 10 10 10 10 11 12 12 12 12 12 13 12 12 12 13 14 15 15 15 16 17 17 17 17 18 18 18 18 17 15 12 12 12 12 11 11 11 11 11 11 11 12 11 11 11 12 12 12 12 12 12 12 12 12 12 12
8 9 9 9 9 9 9 8 8 8 9 10 11 11 10 10 10 10 11 12 11 12 13 14 13 12 12 12 13 13 14 14 15 16 16 16 17 17 17 17 17 17 15 12 11 12 12 11 11 10 10 10 10 10 10 11 11 11 11 11 11 11 12 12 12 12 12 13 13
8 9 9 9 9 9 9 9 9 9 10 10 10 10 10 10 10 11 11 12 12 13 14 14 13 12 12 12 12 12 12 13 14 15 16 16 16 16 16 16 16 16 14 11 10 10 11 11 11 10 10 10 10 10 10 10 10 11 11 11 11 11 11 12 12 12 12 12 13
8 9 9 9 9 9 10 10 10 10 10 10 10 10 11 11 11 11 11 12 13 13 14 14 13 13 13 13 12 12 11 12 14 15 16 16 16 16 16 16 16 15 13 10 8 8 9 10 11 11 10 10 10 10 10 10 10 10 11 10 11 11 11 12 12 12 12 12 12
8 9 9 9 9 9 9 10 9 9 9 9 10 11 11 12 12 12 12 12 13 13 13 13 13 13 13 13 13 12 11 11 12 14 15 15 16 16 16 16 16 15 13 9 7 6 8 9 10 10 10 10 10 11 11 10 11 11 11 10 10 11 11 11 12 12 12 12 12
8 9 9 10 9 9 9 9 9 9 9 10 10 11 11 12 12 12 12 13 13 13 13 13 13 14 14 13 13 13 12 10 11 13 14 14 15 16 16 16 15 14 13 10 6 5 6 8 9 9 9 10 10 10 10 10 11 11 11 10 10 11 11 11 12 12 12 12 12
8 9 9 10 9 9 10 9 9 9 9 10 10 11 11 12 12 12 12 12 12 13 13 13 13 13 13 13 13 12 12 11 11 12 12 13 13 14 15 15 15 15 14 12 6 3 5 7 8 8 8 8 8 9 10 11 10 10 11 11 11 11 11 11 12 12 12 12 12
8 9 9 9 9 10 10 10 9 9 9 10 10 11 11 11 12 12 12 12 12 12 12 12 12 13 13 12 12 12 12 12 12 12 12 13 13 14 14 14 14 15 15 12 6 1 3 6 7 7 7 7 7 9 10 10 10 10 10 11 11 11 11 11 12 11 11 12 12
8 9 9 8 9 9 9 9 9 9 10 10 10 11 11 11 11 12 12 12 11 12 12 11 11 12 13 12 12 12 13 13 13 13 14 14 13 14 14 12 13 14 14 11 6 1 5 5 5 5 6 6 6 7 8 9 9 10 10 11 11 11 11 12 12 12 12 12 11
8 9 9 9 9 9 9 9 9 9 10 10 10 10 11 11 11 11 11 11 11 12 12 11 12 12 12 12 12 13 13 13 13 14 14 15 14 14 13 11 11 11 11 11 9 9 10 9 7 5 5 5 5 6 6 7 9 9 10 10 11 11 12 12 12 12 12 12 12
8 9 9 9 9 10 10 10 10 10 10 10 10 10 11 11 11 11 11 11 11 11 11 11 11 12 12 12 13 13 13 13 13 13 14 14 15 15 14 11 10 9 10 14 14 13 13 14 12 9 6 4 5 5 6 7 8 8 9 10 10 11 11 12 13 13 13 12 12
8 8 9 9 10 10 10 10 10 10 10 10 10 11 11 10 10 10 11 11 11 11 10 10 10 11 12 11 13 13 14 13 13 13 14 14 15 15 15 12 10 9 12 19 19 16 13 14 14 12 9 5 5 5 6 6 7 7 8 8 9 10 10 11 12 13 13 13 13
8 8 9 9 10 10 10 10 10 10 10 10 10 10 10 10 10 11 11 11 11 10 10 9 9 9 9 9 11 13 13 13 13 13 13 14 15 15 15 13 12 12 16 24 24 20 15 13 13 13 11 8 5 4 5 6 7 7 7 8 8 9 10 10 10 11 12 13 13
8 8 9 9 10 10 10 10 10 10 10 10 10 10 10 10 10 11 11 11 11 10 9 8 8 8 8 10 11 12 13 13 12 12 13 14 15 16 15 15 14 16 20 26 27 24 19 13 13 13 12 10 6 5 5 6 6 7 7 7 8 9 9 9 9 10 11 12 12
8 8 8 9 9 10 10 10 10 10 10 9 10 10 10 10 10 11 11 11 11 10 9 8 9 9 10 11 11 11 12 12 12 12 13 14 15 16 16 16 15 16 19 25 27 26 22 14 13 12 12 11 8 5 5 6 6 7 7 7 8 9 10 10 10 11 11 11 12
7 8 8 9 9 9 9 10 10 10 9 9 9 10 10 10 10 10 10 10 10 10 10 10 10 11 11 11 11 11 12 12 12 12 13 14 15 15 16 16 16 16 19 24 27 27 24 18 13 12 12 10 7 5 4 5 6 6 7 7 9 9 10 9 9 11 12 13 13
7 7 8 8 9 9 9 9 9 9 9 9 9 10 10 10 10 10 10 10 10 10 11 11 11 11 12 12 12 12 12 12 12 12 13 13 14 15 15 15 15 16 19 24 26 27 25 21 15 12 11 10 7 5 4 5 6 6 7 8 9 9 10 8 9 10 12 13 13
7 7 8 8 9 9 9 9 9 9 9 9 9 9 10 10 10 10 10 10 10 10 10 11 11 11 11 12 12 12 12 12 12 13 13 14 14 14 15 14 13 15 19 25 26 27 27 24 16 12 10 9 6 4 4 5 5 6 7 8 9 10 10 10 9 10 11 12 12
7 7 8 8 9 9 9 9 9 9 9 9 9 9 10 10 10 10 10 10 10 10 10 10 10 10 10 10 11 11 11 11 12 12 13 13 14 14 14 13 11 14 20 25 26 27 27 25 16 11 8 8 5 4 3 5 5 6 7 8 9 10 10 10 9 9 10 11 12
6 7 8 8 8 9 9 9 9 9 9 9 9 10 10 10 10 10 10 10 10 10 10 10 10 10 10 10 10 11 11 11 12 12 12 13 13 14 14 14 13 17 22 25 26 27 27 27 18 11 6 5 4 4 3 4 5 6 7 8 9 10 10 10 9 9 9 10 11
6 7 7 8 8 9 9 9 9 9 9 9 9 10 10 10 9 9 9 10 10 10 10 10 10 10 11 11 11 11 11 11 12 12 12 13 13 14 14 14 15 18 21 24 26 27 27 28 23 15 8 2 3 4 3 3 5 6 7 8 9 10 11 10 9 9 9 9 10
6 6 7 8 8 9 9 9 9 9 9 9 9 10 10 10 9 9 9 9 9 10 10 11 11 11 11 11 11 11 11 11 11 12 12 13 13 13 14 15 15 17 20 23 25 26 27 28 27 20 11 1 2 4 3 3 4 6 7 8 9 10 10 9 9 9 9 9 11
6 6 6 7 8 8 8 8 9 9 9 10 10 9 9 9 9 9 9 9 9 9 10 10 11 11 11 11 11 11 11 11 12 12 12 12 12 13 14 15 15 16 18 22 25 27 27 28 28 22 12 3 2 3 3 3 4 5 6 7 8 9 9 8 9 9 9 10 14
6 6 6 6 7 8 8 8 9 9 9 9 10 9 9 9 8 8 9 9 8 9 9 10 11 11 11 12 11 11 11 12 12 12 12 12 12 14 15 15 14 15 18 22 25 27 27 28 29 23 13 4 2 3 3 2 4 5 6 7 7 8 9 9 8 9 9 11 16
6 6 6 6 6 7 7 8 9 9 9 9 9 9 9 9 9 9 9 8 8 8 9 9 10 11 11 11 11 11 11 12 11 11 12 12 13 14 15 14 14 15 17 21 24 26 27 28 29 26 17 1 2 3 3 2 4 5 6 6 6 7 8 9 9 9 9 11 13
6 6 6 6 6 7 7 8 8 9 8 8 9 9 9 9 9 9 9 8 9 8 8 8 10 11 11 11 10 10 11 12 12 12 12 12 13 13 14 13 13 14 16 19 22 25 26 27 27 27 21 6 1 2 2 2 4 5 5 5 6 7 8 9 9 9 10 11 10
Wind_Direction
335 335 337 342 346 346 343 340 339 337 335 331 328 326 324 322 321 319 317 316 315 315 315 313 313 313 315 318 319 320 320 321 319 317 315 314 312 310 309 307 305 303 300 297 294 291 287 285 283 281 278 278 277 277 277 278 281 282 281 280 282 282 282 281 280 280 279 277 275
332 331 333 339 345 344 340 338 337 335 333 329 325 323 322 320 319 317 316 315 315 315 314 312 313 314 316 319 321 322 323 322 319 318 316 315 314 313 313 311 309 306 303 300 296 292 288 286 284 281 278 277 276 276 276 277 279 279 279 279 280 280 279 279 279 279 279 278 276
328 328 330 337 344 344 341 338 336 334 332 327 324 322 320 319 317 316 316 316 316 315 314 313 314 316 318 320 323 324 324 322 319 318 317 317 318 318 318 316 314 311 308 304 299 294 289 287 284 280 276 275 276 277 278 279 279 278 279 280 280 280 280 279 279 279 278 276 275
326 327 331 340 345 344 341 338 335 333 331 326 323 321 319 319 318 316 315 316 316 316 315 314 315 317 320 324 325 324 323 321 320 319 319 321 322 322 322 321 320 317 314 309 303 296 291 287 282 278 274 274 275 276 276 278 278 278 279 281 283 282 280 279 278 277 276 276 276
327 330 335 343 344 343 340 335 333 331 328 324 321 320 321 321 319 318 317 318 319 317 316 315 316 320 324 326 325 323 322 321 321 322 323 324 325 325 326 326 325 324 321 316 310 303 297 291 284 278 275 274 274 274 275 277 278 279 280 281 281 280 278 278 277 277 277 278 279
328 331 334 342 342 340 337 332 330 328 325 322 321 321 322 322 320 320 320 320 317 315 315 317 321 324 326 326 324 323 323 323 324 325 325 326 327 328 329 330 330 329 328 327 323 316 307 298 289 281 276 273 272 273 275 277 279 279 280 280 281 280 279 280 280 280 280 280 280
326 330 334 339 338 336 333 330 328 326 324 321 321 322 322 321 320 320 320 318 316 317 319 321 326 328 327 326 324 324 324 326 326 327 328 328 329 331 332 333 333 333 335 337 337 333 325 311 299 288 283 280 279 279 280 281 281 282 282 283 284 284 283 281 281 281 281 281 281
327 331 333 335 333 331 329 328 328 326 325 323 322 322 322 321 322 322 321 319 319 319 321 323 326 327 327 325 324 325 326 327 328 329 329 329 331 333 334 334 335 336 340 346 348 347 343 331 317 302 293 288 287 286 286 286 286 285 286 286 287 286 284 282 281 281 282 283 283
329 331 332 331 328 327 326 328 328 326 324 322 321 321 322 323 324 324 323 321 320 320 321 322 325 327 327 326 326 326 328 329 329 329 330 330 333 334 335 336 337 339 343 351 354 355 355 350 339 324 309 296 293 291 291 291 289 288 287 287 287 286 285 283 282 283 283 285 285
328 330 331 332 329 327 326 328 327 325 323 321 322 322 323 325 326 325 323 321 320 320 321 322 326 327 328 328 328 329 330 330 330 330 330 331 333 335 336 337 337 340 345 354 357 359 2 2 357 350 338 319 306 299 296 294 292 290 290 289 289 289 289 287 286 286 286 286 287
326 329 332 331 328 327 327 328 327 326 325 324 324 324 325 326 325 324 322 322 321 321 321 323 327 329 330 330 331 331 331 331 331 330 330 331 334 335 336 337 338 341 346 357 358 1 6 9 8 6 3 354 335 317 307 303 300 297 295 293 293 293 292 292 292 290 288 287 288
326 329 332 330 327 326 327 328 328 327 326 325 326 327 327 327 326 325 324 324 323 322 322 325 328 331 332 332 332 331 331 331 332 331 331 332 334 336 337 338 339 342 347 360 359 2 7 11 13 14 15 15 12 0 346 334 324 317 312 308 305 303 302 303 302 300 295 292 292
327 331 332 330 328 327 328 329 328 327 327 328 328 329 328 328 327 326 326 326 325 324 324 325 329 332 334 333 332 332 332 332 332 332 332 333 335 336 338 339 340 342 347 1 0 2 7 11 14 16 17 20 21 20 15 8 359 352 345 339 334 331 328 326 327 325 322 316 313
329 331 331 329 328 328 329 329 328 328 329 329 330 330 329 328 328 328 328 326 326 324 324 326 330 333 335 334 333 333 332 332 333 333 334 334 336 337 338 339 340 341 346 1 1 3 6 10 13 15 16 18 20 21 20 19 17 13 8 4 1 357 354 353 352 350 347 344 342
329 331 331 329 329 329 329 329 329 329 330 331 331 331 330 329 329 329 328 327 325 325 325 328 331 333 334 335 335 334 334 333 334 335 335 336 337 337 338 339 339 340 344 359 0 3 6 8 11 13 14 14 16 17 18 19 19 18 15 12 9 6 3 1 360 358 356 353 351
329 330 331 330 329 328 328 329 328 329 331 331 331 331 330 329 329 328 327 327 326 326 327 329 330 332 333 336 337 336 336 336 336 336 336 337 337 337 338 338 339 339 342 357 360 3 5 6 9 11 12 12 12 12 13 14 15 15 14 12 9 5 2 360 358 356 355 353 351
330 329 329 329 327 326 326 326 327 328 329 330 330 330 330 329 328 327 327 328 327 327 327 328 330 332 334 336 338 338 338 338 337 336 336 336 335 335 336 337 337 337 340 353 359 3 4 5 7 9 11 12 11 9 9 9 11 11 10 9 6 3 359 358 356 355 353 352 350
328 328 328 327 325 324 324 324 325 327 328 329 329 329 329 328 327 326 326 326 327 327 327 328 329 331 334 336 338 339 339 339 337 335 335 334 334 334 335 335 336 336 337 346 357 3 5 5 6 8 10 11 10 8 7 7 8 8 7 6 4 0 358 356 355 354 353 351 348
325 326 327 325 324 322 321 323 324 326 327 328 328 328 327 327 326 325 325 325 327 327 328 328 329 331 334 336 338 339 340 338 336 334 333 332 333 333 334 334 335 335 334 334 348 1 8 8 9 10 11 11 10 9 8 7 7 6 5 4 2 359 357 355 354 353 352 350 347
324 325 326 323 321 319 319 320 322 324 325 327 327 327 327 327 327 326 326 325 326 327 328 328 329 331 333 336 338 340 340 337 335 334 333 332 333 333 333 333 333 333 332 324 335 356 11 13 14 14 13 13 11 10 8 7 6 4 3 2 1 358 356 354 353 352 351 350 346
323 324 323 320 318 317 317 319 321 323 325 326 327 327 327 327 327 327 326 325 325 326 328 329 330 332 333 335 338 339 339 337 335 333 333 332 332 332 331 331 331 332 330 322 320 348 16 21 20 17 16 15 13 10 8 8 6 3 2 1 359 357 356 354 353 352 351 349 346
320 322 321 319 317 316 318 320 322 323 325 327 328 328 328 327 327 326 325 324 325 327 329 330 331 332 333 334 336 337 337 335 333 333 333 333 332 331 331 330 330 331 329 321 305 332 25 30 25 22 18 16 12 10 10 9 5 3 1 360 358 357 355 355 353 352 350 349 346
318 320 320 319 317 317 319 321 322 324 326 328 329 329 329 327 326 325 325 325 326 328 329 330 331 331 331 333 335 336 336 334 333 333 334 334 333 332 331 330 331 331 328 318 287 273 52 42 30 24 20 17 14 13 12 9 6 3 0 359 357 356 355 355 353 351 349 348 346
317 319 320 320 319 319 319 320 322 325 328 329 330 329 328 327 326 326 326 326 326 327 328 329 330 330 331 333 336 337 337 336 335 334 334 335 335 334 333 332 333 332 326 313 302 19 71 64 45 32 24 21 19 17 14 10 6 3 1 358 356 355 354 353 353 351 350 348 346
316 319 320 321 320 319 319 320 323 325 328 329 329 329 329 328 327 326 326 326 326 327 327 328 329 330 333 335 337 338 338 338 336 335 335 335 335 336 335 334 335 332 324 312 338 22 52 64 62 52 38 28 23 18 15 13 9 5 2 359 357 354 353 351 351 351 350 348 345
317 320 321 321 320 320 321 321 323 325 327 329 330 330 329 327 326 325 325 325 326 326 327 329 331 334 336 337 337 338 339 338 338 336 335 334 335 336 336 336 336 329 322 321 343 9 36 53 59 61 58 41 31 24 19 15 11 7 3 0 358 355 353 350 349 349 348 347 344
318 320 321 322 321 321 321 321 322 324 327 329 330 329 328 326 325 325 325 326 326 326 327 330 334 335 336 336 336 337 337 337 337 336 335 334 334 335 336 335 334 327 324 329 342 358 22 41 50 57 60 56 42 31 24 18 13 8 5 2 359 356 353 349 347 346 345 345 342
318 319 321 322 322 322 321 321 323 325 327 329 329 328 326 325 325 325 326 327 327 327 329 332 335 336 336 335 335 335 335 335 335 335 335 335 334 335 335 335 333 329 327 331 340 351 6 27 41 49 54 58 51 39 29 23 16 12 8 5 0 357 353 349 345 344 343 342 341
316 318 320 322 322 322 322 323 324 325 326 326 326 326 326 326 326 327 328 328 327 328 330 333 334 334 334 333 333 332 333 333 334 335 335 335 335 335 334 333 331 329 329 331 337 345 356 14 32 41 47 52 54 46 35 28 21 15 11 7 2 358 353 349 345 344 343 342 340
315 318 320 321 321 322 322 323 323 323 323 324 325 326 326 327 328 328 328 327 326 326 328 330 331 331 330 330 331 332 332 332 333 334 335 335 335 334 332 331 330 328 328 330 334 341 350 5 23 34 39 46 51 50 40 32 24 19 13 8 3 358 353 349 344 343 342 342 339
314 317 319 320 321 321 321 321 321 321 321 322 324 326 327 329 329 328 327 325 323 323 326 328 328 328 328 329 331 331 330 329 331 333 334 334 333 331 329 328 327 325 326 329 332 337 345 357 12 24 31 37 45 49 44 35 28 21 14 8 3 358 354 349 343 342 342 341 339
313 317 319 320 320 320 320 320 320 321 321 321 322 325 327 328 327 326 324 322 322 323 325 327 328 328 328 329 330 330 329 328 330 332 333 332 331 329 327 327 326 324 325 328 331 334 338 349 5 18 24 26 34 41 43 37 30 23 15 9 4 359 355 350 344 342 341 340 337
314 317 319 319 319 319 319 320 320 320 321 321 322 324 326 326 326 325 324 323 323 324 325 326 326 326 326 327 328 327 327 327 329 330 330 329 328 327 327 327 325 324 325 328 330 331 334 344 1 15 20 16 17 20 30 37 31 23 15 9 5 1 356 351 346 342 339 337 334
313 316 317 318 318 318 318 320 320 321 320 321 322 324 325 326 325 325 324 323 324 324 324 323 322 321 321 322 323 324 324 326 327 327 327 327 327 327 328 328 324 324 326 329 330 331 332 339 357 13 19 7 354 348 3 30 30 24 15 7 4 1 357 351 345 340 336 333 331
311 314 316 316 316 317 318 319 320 321 321 321 321 323 324 324 324 322 321 321 323 323 322 321 320 319 320 322 322 323 323 324 324 324 324 325 327 327 327 325 323 325 327 329 330 330 331 334 347 2 16 1 331 320 337 21 28 23 14 6 4 360 356 350 345 340 336 332 329
308 311 313 313 314 316 317 319 320 321 322 321 321 322 323 323 321 319 318 320 322 322 321 320 320 321 322 324 323 323 323 322 321 320 321 324 327 326 325 324 323 325 327 329 329 329 330 330 335 345 3 11 306 300 319 6 24 22 14 7 3 360 356 350 346 342 337 332 329
306 307 308 309 311 314 316 318 320 321 322 321 320 320 320 319 319 317 317 321 322 321 320 320 320 321 321 322 321 320 319 319 318 318 320 324 325 324 323 323 323 324 325 326 327 328 328 329 331 340 357 103 275 288 309 351 19 21 15 7 2 358 355 350 347 344 339 333 334
303 302 303 304 307 311 314 317 319 320 320 319 318 318 317 316 316 316 318 323 323 321 319 317 317 317 317 317 316 316 316 316 316 317 319 321 322 323 323 324 323 323 323 324 325 327 328 329 330 339 357 136 243 277 301 344 20 23 16 6 360 357 355 351 348 346 342 337 341
300 298 297 299 303 308 313 316 317 317 317 317 317 316 316 314 314 316 319 323 320 317 315 313 313 313 314 315 315 315 315 314 315 316 318 319 321 323 325 325 323 321 320 322 324 325 327 329 329 337 352 144 214 260 288 339 22 24 17 5 358 355 354 353 349 347 344 340 343
296 295 295 296 301 306 311 314 315 315 315 316 315 315 314 314 314 316 319 320 318 315 312 309 310 310 312 315 315 314 313 312 313 315 317 318 320 323 325 324 321 318 318 320 322 324 326 328 328 334 341 164 192 230 274 344 23 24 15 3 356 354 353 352 351 348 345 342 341
292 294 297 300 303 306 310 311 312 313 313 314 313 312 313 315 316 317 318 317 316 314 312 310 311 311 312 314 313 312 311 310 313 314 316 318 319 321 322 320 316 315 315 317 320 323 325 328 328 330 335 356 124 192 256 6 26 20 9 357 355 355 354 352 351 349 347 344 341